Regional Weather Roundup
Issued by NWS

Home | Current Version | Previous Version | Text Only | Print | Product List | Glossary On
Versions: 1 2 3 4 5 6 7 8 9 10 11 12 13 14 15 16 17 18 19 20 21 22 23 24 25 26 27 28 29 30 31 32 33 34 35 36 37 38 39 40 41 42 43 44 45 46 47 48 49 50
000
ASUS44 KFWD 171610
RWRTX
NORTH TEXAS HOURLY WEATHER ROUNDUP
NATIONAL WEATHER SERVICE FORT WORTH TX
1000 AM CST SUN DEC 17 2017

NOTE: "FAIR" INDICATES FEW OR NO CLOUDS BELOW 12,000 FEET WITH NO
SIGNIFICANT WEATHER AND/OR OBSTRUCTIONS TO VISIBILITY.

TXZ118-119-171700-
DALLAS/FORT WORTH METROPLEX

CITY           SKY/WX    TMP DP  RH WIND       PRES   REMARKS
DFW AIRPORT    CLOUDY    48  45  89 S8        30.07R
DALLAS LOVE    CLOUDY    47  45  93 S5        30.08R
FTW MEACHAM    CLOUDY    47  45  93 S8        30.07S
DAL-EXECUTIVE  CLOUDY    46  45  96 CALM      30.07S
FTW-ALLIANCE   CLOUDY    46  44  93 S8        30.07S
FTW-NAS-JRB    CLOUDY    47  43  86 S9        30.08R
FTW-SPINKS     CLOUDY    46  45  93 S6        30.09R FOG
ARLINGTON      CLOUDY    46  44  93 S6        30.08R
GRAND PRAIRIE  CLOUDY    46  46 100 S5        30.09S
ADDISON        CLOUDY    46  45  93 S7        30.09R FOG
MESQUITE       CLOUDY    45  43  93 CALM      30.10R FOG
LANCASTER      CLOUDY    45  44  97 CALM      30.09F FOG
$$

TXZ091>094-102>105-117-120-121-131>134-171700-
NORTH CENTRAL TEXAS

CITY           SKY/WX    TMP DP  RH WIND       PRES   REMARKS
SHRMAN/DENISON CLOUDY    46  44  95 S7        30.10R
GAINESVILLE    CLOUDY    45  43  95 S8        30.09S FOG
BOWIE          CLOUDY    45  43  94 S9        30.06R WCI  40
BRIDGEPORT     CLOUDY    47  44  92 S7        30.08S
DECATUR        CLOUDY    45  43  95 S7        30.06R FOG
DENTON         CLOUDY    45  44  97 SW10      30.08S WCI  40
MCKINNEY       CLOUDY    47  46  97 S7        30.09R
BONHAM         CLOUDY    45  44  96 CALM      30.09S
GREENVILLE     CLOUDY    48  46  93 CALM      30.10R
ROCKWALL       CLOUDY    46  46 100 S5        30.10R
TERRELL        FOG       45  44  97 CALM      30.09S VSB 1
WAXAHACHIE     CLOUDY    45  45 100 CALM      30.09F
GRANBURY       CLOUDY    47  45  91 SE6       30.08R
$$

TXZ083>090-098>101-113>116-127>130-139>142-154-155-171700-
WESTERN NORTH TEXAS

CITY           SKY/WX    TMP DP  RH WIND       PRES   REMARKS
WICHITA FALLS  CLOUDY    49  42  77 S10       30.03R
WF-KICKAPOO    CLOUDY    48  43  82 S9        30.06S
VERNON         CLOUDY    47  39  74 S9        30.04R
ABILENE        CLOUDY    47  42  83 SW9       30.03R
ABILENE-DYESS  CLOUDY    49  41  74 W6        30.03R
GRAHAM           N/A     51  45  78 S8        30.03R
BRECKENRIDGE   SUNNY     51  42  70 SW7       30.04R
CISCO          SUNNY     48  43  81 S8        30.03R
EASTLAND       SUNNY     48  44  85 S7        30.03R
RANGER         SUNNY     47  45  91 SW7       30.04R
MINERAL WELLS  CLOUDY    46  44  93 S7        30.04S
STEPHENVILLE   CLOUDY    47  45  91 S6        30.07R
COMANCHE       MOSUNNY   51  48  89 S5        30.04S
COLEMAN        FOG       42  41  97 CALM      30.05R VSB 1/2
$$

TXZ143>147-156>162-174-175-171700-
CENTRAL TEXAS

CITY           SKY/WX    TMP DP  RH WIND       PRES   REMARKS
WACO           CLOUDY    47  45  93 S9        30.09R
WACO-TSTC      CLOUDY    46  46 100 S6        30.10R
WACO-MCGREGOR  CLOUDY    47  45  93 SW5       30.09R
HILLSBORO      CLOUDY    47  46  97 S7        30.07R
CORSICANA      FOG       45  45 100 S5        30.11R VSB 1/4
MEXIA          FOG       42  42  97 S9        30.10R VSB<1/4 WCI  37
HEARNE         FOG       41  41 100 E3        30.14R VSB<1/4
CAMERON        CLOUDY    46  46  99 E3        30.12R
TEMPLE         CLOUDY    46  46 100 S10       30.11R FOG
KILLEEN        CLOUDY    46  46 100 S9        30.07R
KILLEEN-SKYLRK CLOUDY    46  45  96 S9        30.10R
FORT HOOD      CLOUDY    45  45 100 S8        30.05R
GATESVILLE     CLOUDY    46  46 100 S7        30.09R
HAMILTON       CLOUDY    47  47 100 SW7       30.07R FOG
LAMPASAS       CLOUDY    47  46  95 CALM      30.06R
$$

TXZ095>097-106>112-122>126-135>138-148>153-164>167-171700-
EAST TEXAS

CITY           SKY/WX    TMP DP  RH WIND       PRES   REMARKS
PARIS          CLOUDY    46  45  93 CALM      30.11R
SULPHUR SPRNGS CLOUDY    47  47 100 CALM      30.13R
MOUNT PLEASANT CLOUDY    45  45 100 CALM      30.12F VSB 3/4
GILMER         FOG       44  44 100 E3        30.11R VSB 1/2
MINEOLA        FOG       45  45 100 CALM      30.11R VSB 1/4
TYLER          FOG       45  45 100 S5        30.11R VSB 1/4
LONGVIEW       FOG       45  44  97 CALM      30.10S VSB 1/4
MARSHALL       CLOUDY    45  43  94 CALM      30.14R VSB 3/4
ATHENS         FOG       39  39 100 CALM      30.09S VSB<1/4
PALESTINE      FOG       42  42 100 S5        30.12R VSB<1/4 WCI  39
JACKSONVILLE   CLOUDY    44  44 100 CALM      30.11S FOG
HENDERSON      FOG       43  43 100 CALM      30.12R VSB<1/4
CENTER         FOG       44  43  95 E7        30.13R VSB 3/4
NACOGDOCHES    FOG       45  45 100 CALM      30.12R VSB 1/4
LUFKIN         FOG       47  46  97 CALM      30.11S VSB 1/2
$$

SUPPLEMENTAL OBSERVATIONS (NWS FORT WORTH AREA)

CITY           SKY/WX    TMP DP  RH WIND       PRES   REMARKS
CADDO GRASSLND   N/A     46  45  93 SW2         N/A
LBJ GRASSLAND    N/A     45  41  87 S6          N/A
POSSUM KINGDOM   N/A     52  45  76 S7          N/A
GRANBURY         N/A     46  41  81 S8          N/A
MCGREGOR         N/A     46  45  93 S5          N/A
TEMPLE           N/A     46  45  93 S6          N/A
$$

SUPPLEMENTAL OBSERVATIONS (NWS NORMAN AREA)

CITY           SKY/WX    TMP DP  RH WIND       PRES   REMARKS
GOODLETT         N/A     43  37  78 NW5       30.03R
ODELL            N/A     44  41  87 S7        30.05R
CROWELL          N/A     40  38  89 CALM      30.05R
KNOX CITY        N/A     39  37  90 W7        30.06R WCI  34
SEYMOUR          N/A     47  40  75 SW9       30.04R
MILLERS CREEK    N/A     46  41  81 SW6         N/A
$$

SUPPLEMENTAL OBSERVATIONS (NWS SAN ANGELO AREA)

CITY           SKY/WX    TMP DP  RH WIND       PRES   REMARKS
WEINERT          N/A     45  38  77 W10       30.03S WCI  40
HASKELL          N/A     45  39  78 W8        30.03R
THROCKMORTON     N/A     50  41  72 SW6       30.04R
STAMFORD         N/A     47  40  79 W6        30.04R
CLYDE            N/A     49  43  79 S7        30.04R
HAMBY            N/A     50  41  71 SW8         N/A
$$

SUPPLEMENTAL OBSERVATIONS (NWS SHREVEPORT AREA)

CITY           SKY/WX    TMP DP  RH WIND       PRES   REMARKS
TEXARKANA        N/A     46  45  93 NE2         N/A
LINDEN           N/A     46  43  87 E1          N/A
LUFKIN           N/A     46  45  93 MISG        N/A
N SABINE NF      N/A     46  45  93 MISG        N/A
$$

SUPPLEMENTAL OBSERVATIONS ARE A COLLECTION OF AUTOMATED INSTRUMENTS
THAT ARE MAINTAINED BY A VARIETY OF FEDERAL AND STATE AGENCIES.
CERTAIN ELEMENTS...SUCH AS HUMIDITY VALUES AND SUSTAINED WIND
SPEEDS...MAY BE APPROXIMATED.




USA.gov is the U.S. government's official web portal to all federal, state and local government web resources and services.